{"data":{"norad_id":62202,"intl_designator":"2024-229L","name":"STARLINK-32655","alt_names":[],"object_type":"PAYLOAD","status":"ACTIVE","operator":null,"country":"US","launch_date":"2024-12-04","launch_site_code":"AFETR","launch_vehicle":null,"mission":null,"orbit_class":"UNKNOWN","rcs_meters":null,"size_class":null,"mass_kg":null,"dimensions":null,"purposes":["comms"],"wikipedia_slug":null,"has_3d_model":false,"image_url":null,"decayed_at":null,"tle_current":{"epoch":"2026-05-25T05:24:40.070592Z","epoch_age_seconds":66288,"freshness":"FRESH","line1":"1 62202U 24229L   26145.22546378  .00021534  00000+0  78948-3 0  9999","line2":"2 62202  42.9986 198.7249 0001362 266.8754  93.1942 15.27591195 82263","mean_motion":15.27591195,"eccentricity":0.0001362,"inclination_deg":42.9986,"raan_deg":198.7249,"arg_perigee_deg":266.8754,"mean_anomaly_deg":93.1942,"bstar":0.00078948,"rev_number":8226,"period_min":94.266057876826,"perigee_km":482.08108540636,"apogee_km":483.95006336763,"semimajor_km":6861.152574387,"source":"CELESTRAK","updated_at":"2026-05-25T13:38:19.607947Z"}}}